Time,TemperatureF,DewpointF,PressureIn,WindDirection,WindDirectionDegrees,WindSpeedMPH,WindSpeedGustMPH,Humidity,HourlyPrecipIn,Conditions,Clouds,dailyrainin,SoftwareType,DateUTC
2013-10-02 00:04:00,61.0,60.1,30.01,SSW,202,0.0,-999.0,97,-99.99,,,0.00,Acu-Link.com,2013-10-02 04:04:00,
2013-10-02 00:19:00,60.8,60.2,30.01,South,180,0.0,-999.0,98,-99.99,,,0.00,Acu-Link.com,2013-10-02 04:19:00,
2013-10-02 00:34:00,60.4,60.1,30.01,SSW,202,0.0,-999.0,99,-99.99,,,0.00,Acu-Link.com,2013-10-02 04:34:00,
2013-10-02 00:49:00,60.3,59.7,30.01,SE,135,0.0,-999.0,98,-99.99,,,0.00,Acu-Link.com,2013-10-02 04:49:00,
2013-10-02 01:04:00,60.1,59.5,30.00,South,180,0.0,-999.0,98,-99.99,,,0.00,Acu-Link.com,2013-10-02 05:04:00,
2013-10-02 01:19:00,59.9,59.6,30.01,SSE,157,0.0,-999.0,99,-99.99,,,0.00,Acu-Link.com,2013-10-02 05:19:00,
2013-10-02 01:34:00,59.7,59.4,30.01,South,180,0.0,-999.0,99,-99.99,,,0.00,Acu-Link.com,2013-10-02 05:34:00,
2013-10-02 01:51:00,59.5,59.2,30.00,SE,135,0.0,-999.0,99,-99.99,,,0.00,Acu-Link.com,2013-10-02 05:51:00,
2013-10-02 02:06:00,59.4,59.1,30.01,South,180,0.0,-999.0,99,-99.99,,,0.00,Acu-Link.com,2013-10-02 06:06:00,
2013-10-02 02:21:00,59.2,58.9,30.01,South,180,0.0,-999.0,99,-99.99,,,0.00,Acu-Link.com,2013-10-02 06:21:00,
2013-10-02 02:36:00,59.2,58.9,30.00,ENE,67,0.0,-999.0,99,-99.99,,,0.00,Acu-Link.com,2013-10-02 06:36:00,
2013-10-02 02:51:00,59.0,58.7,30.01,South,180,0.0,-999.0,99,-99.99,,,0.00,Acu-Link.com,2013-10-02 06:51:00,
2013-10-02 03:07:00,59.0,58.7,30.01,South,180,0.0,-999.0,99,-99.99,,,0.00,Acu-Link.com,2013-10-02 07:07:00,
2013-10-02 03:22:00,58.8,58.5,30.00,South,180,0.0,-999.0,99,-99.99,,,0.00,Acu-Link.com,2013-10-02 07:22:00,
2013-10-02 03:37:00,58.6,58.3,30.00,SSE,157,0.0,-999.0,99,-99.99,,,0.00,Acu-Link.com,2013-10-02 07:37:00,
2013-10-02 03:52:00,58.5,58.2,30.00,South,180,0.0,-999.0,99,-99.99,,,0.00,Acu-Link.com,2013-10-02 07:52:00,
2013-10-02 04:07:00,58.3,58.0,30.00,SSW,202,0.0,-999.0,99,-99.99,,,0.00,Acu-Link.com,2013-10-02 08:07:00,
2013-10-02 04:23:00,58.3,58.0,29.99,SSW,202,0.0,-999.0,99,-99.99,,,0.00,Acu-Link.com,2013-10-02 08:23:00,
2013-10-02 04:38:00,58.1,57.8,29.99,ESE,112,0.0,-999.0,99,-99.99,,,0.00,Acu-Link.com,2013-10-02 08:38:00,
2013-10-02 04:53:00,57.9,57.6,30.00,SSW,202,0.0,-999.0,99,-99.99,,,0.00,Acu-Link.com,2013-10-02 08:53:00,
2013-10-02 05:08:00,57.9,57.6,30.00,SSW,202,0.0,-999.0,99,-99.99,,,0.00,Acu-Link.com,2013-10-02 09:08:00,
2013-10-02 05:24:00,57.7,57.4,29.99,SSW,202,0.0,-999.0,99,-99.99,,,0.00,Acu-Link.com,2013-10-02 09:24:00,
2013-10-02 05:39:00,57.0,56.7,30.00,SSE,157,0.0,-999.0,99,-99.99,,,0.00,Acu-Link.com,2013-10-02 09:39:00,
2013-10-02 05:54:00,56.8,56.5,30.01,SSW,202,0.0,-999.0,99,-99.99,,,0.00,Acu-Link.com,2013-10-02 09:54:00,
2013-10-02 06:09:00,56.7,56.4,30.01,SSE,157,0.0,-999.0,99,-99.99,,,0.00,Acu-Link.com,2013-10-02 10:09:00,
2013-10-02 06:24:00,56.7,56.4,30.01,SE,135,0.0,-999.0,99,-99.99,,,0.00,Acu-Link.com,2013-10-02 10:24:00,
2013-10-02 06:39:00,56.5,56.2,30.02,East,90,0.0,-999.0,99,-99.99,,,0.00,Acu-Link.com,2013-10-02 10:39:00,
2013-10-02 06:54:00,56.7,56.4,30.02,NW,315,0.0,-999.0,99,-99.99,,,0.00,Acu-Link.com,2013-10-02 10:54:00,
2013-10-02 07:09:00,56.7,56.4,30.02,SSW,202,0.0,-999.0,99,-99.99,,,0.00,Acu-Link.com,2013-10-02 11:09:00,
2013-10-02 07:24:00,56.8,56.5,30.03,South,180,0.0,-999.0,99,-99.99,,,0.00,Acu-Link.com,2013-10-02 11:24:00,
2013-10-02 07:40:00,56.8,56.5,30.03,ESE,112,0.0,-999.0,99,-99.99,,,0.00,Acu-Link.com,2013-10-02 11:40:00,
2013-10-02 07:55:00,56.8,56.5,30.04,SSW,202,0.0,-999.0,99,-99.99,,,0.00,Acu-Link.com,2013-10-02 11:55:00,
2013-10-02 08:10:00,57.0,56.7,30.04,ESE,112,0.0,-999.0,99,-99.99,,,0.00,Acu-Link.com,2013-10-02 12:10:00,
2013-10-02 08:25:00,57.6,57.3,30.04,ESE,112,0.0,-999.0,99,-99.99,,,0.00,Acu-Link.com,2013-10-02 12:25:00,
2013-10-02 08:40:00,58.1,57.8,30.05,ESE,112,0.0,-999.0,99,-99.99,,,0.00,Acu-Link.com,2013-10-02 12:40:00,
2013-10-02 08:55:00,58.6,58.3,30.05,ESE,112,0.0,-999.0,99,-99.99,,,0.00,Acu-Link.com,2013-10-02 12:55:00,
2013-10-02 09:10:00,59.5,59.2,30.05,NW,315,0.0,-999.0,99,-99.99,,,0.00,Acu-Link.com,2013-10-02 13:10:00,
2013-10-02 09:25:00,61.0,60.7,30.05,North,0,0.0,-999.0,99,-99.99,,,0.00,Acu-Link.com,2013-10-02 13:25:00,
2013-10-02 09:40:00,62.4,62.1,30.06,WNW,292,0.0,-999.0,99,-99.99,,,0.00,Acu-Link.com,2013-10-02 13:40:00,
2013-10-02 09:56:00,64.2,63.9,30.06,SSW,202,0.0,-999.0,99,-99.99,,,0.00,Acu-Link.com,2013-10-02 13:56:00,
2013-10-02 10:11:00,66.0,64.5,30.06,East,90,1.7,-999.0,95,-99.99,,,0.00,Acu-Link.com,2013-10-02 14:11:00,
2013-10-02 10:26:00,67.5,65.4,30.05,South,180,0.0,-999.0,93,-99.99,,,0.00,Acu-Link.com,2013-10-02 14:26:00,
2013-10-02 10:41:00,68.7,65.6,30.05,WNW,292,0.0,-999.0,90,-99.99,,,0.00,Acu-Link.com,2013-10-02 14:41:00,
2013-10-02 10:56:00,70.0,65.6,30.05,NNW,337,0.0,-999.0,86,-99.99,,,0.00,Acu-Link.com,2013-10-02 14:56:00,
2013-10-02 11:11:00,71.4,65.3,30.05,South,180,0.0,-999.0,81,-99.99,,,0.00,Acu-Link.com,2013-10-02 15:11:00,
2013-10-02 11:26:00,73.0,66.1,30.04,North,0,0.0,-999.0,79,-99.99,,,0.00,Acu-Link.com,2013-10-02 15:26:00,
2013-10-02 11:42:00,73.9,66.2,30.04,East,90,0.0,-999.0,77,-99.99,,,0.00,Acu-Link.com,2013-10-02 15:42:00,
2013-10-02 11:57:00,75.4,65.7,30.04,West,270,0.0,-999.0,72,-99.99,,,0.00,Acu-Link.com,2013-10-02 15:57:00,
2013-10-02 12:12:00,76.8,64.6,30.03,NNE,22,0.0,-999.0,66,-99.99,,,0.00,Acu-Link.com,2013-10-02 16:12:00,
2013-10-02 12:27:00,77.5,65.7,30.03,West,270,0.0,-999.0,67,-99.99,,,0.00,Acu-Link.com,2013-10-02 16:27:00,
2013-10-02 12:42:00,78.1,65.8,30.02,West,270,2.2,-999.0,66,-99.99,,,0.00,Acu-Link.com,2013-10-02 16:42:00,
2013-10-02 12:57:00,78.8,65.6,30.01,SE,135,0.0,-999.0,64,-99.99,,,0.00,Acu-Link.com,2013-10-02 16:57:00,
2013-10-02 13:12:00,79.3,65.6,30.01,NNW,337,2.2,-999.0,63,-99.99,,,0.00,Acu-Link.com,2013-10-02 17:12:00,
2013-10-02 13:27:00,79.7,64.6,30.00,WNW,292,1.7,-999.0,60,-99.99,,,0.00,Acu-Link.com,2013-10-02 17:27:00,
2013-10-02 13:42:00,82.0,67.2,29.99,SSW,202,0.0,-999.0,61,-99.99,,,0.00,Acu-Link.com,2013-10-02 17:42:00,
2013-10-02 13:58:00,80.4,65.2,29.99,South,180,0.0,-999.0,60,-99.99,,,0.00,Acu-Link.com,2013-10-02 17:58:00,
2013-10-02 14:13:00,78.6,66.3,29.98,SW,225,0.0,-999.0,66,-99.99,,,0.00,Acu-Link.com,2013-10-02 18:13:00,
2013-10-02 14:28:00,80.8,65.6,29.98,SSW,202,0.0,-999.0,60,-99.99,,,0.00,Acu-Link.com,2013-10-02 18:28:00,
2013-10-02 14:43:00,80.6,63.4,29.97,ENE,67,2.2,-999.0,56,-99.99,,,0.00,Acu-Link.com,2013-10-02 18:43:00,
2013-10-02 14:58:00,80.6,64.4,29.97,SSW,202,0.0,-999.0,58,-99.99,,,0.00,Acu-Link.com,2013-10-02 18:58:00,
2013-10-02 15:13:00,79.9,64.8,29.97,SSW,202,0.0,-999.0,60,-99.99,,,0.00,Acu-Link.com,2013-10-02 19:13:00,
2013-10-02 15:28:00,79.5,67.1,29.97,SSW,202,0.0,-999.0,66,-99.99,,,0.00,Acu-Link.com,2013-10-02 19:28:00,
2013-10-02 15:43:00,80.2,64.5,29.96,WSW,247,0.0,-999.0,59,-99.99,,,0.00,Acu-Link.com,2013-10-02 19:43:00,
2013-10-02 15:58:00,79.9,63.8,29.96,SSW,202,0.0,-999.0,58,-99.99,,,0.00,Acu-Link.com,2013-10-02 19:58:00,
2013-10-02 16:14:00,79.3,65.6,29.96,SSW,202,0.0,-999.0,63,-99.99,,,0.00,Acu-Link.com,2013-10-02 20:14:00,
2013-10-02 16:29:00,79.2,66.4,29.96,SW,225,0.0,-999.0,65,-99.99,,,0.00,Acu-Link.com,2013-10-02 20:29:00,
2013-10-02 16:44:00,79.3,66.9,29.96,South,180,0.0,-999.0,66,-99.99,,,0.00,Acu-Link.com,2013-10-02 20:44:00,
2013-10-02 16:59:00,79.2,66.0,29.96,SSW,202,0.0,-999.0,64,-99.99,,,0.00,Acu-Link.com,2013-10-02 20:59:00,
2013-10-02 17:14:00,78.8,66.9,29.96,SW,225,0.0,-999.0,67,-99.99,,,0.00,Acu-Link.com,2013-10-02 21:14:00,
2013-10-02 17:29:00,77.7,65.9,29.96,SW,225,0.0,-999.0,67,-99.99,,,0.00,Acu-Link.com,2013-10-02 21:29:00,
2013-10-02 17:44:00,76.6,66.1,29.96,SW,225,0.0,-999.0,70,-99.99,,,0.00,Acu-Link.com,2013-10-02 21:44:00,
2013-10-02 17:59:00,76.5,66.0,29.96,SW,225,0.0,-999.0,70,-99.99,,,0.00,Acu-Link.com,2013-10-02 21:59:00,
2013-10-02 18:14:00,75.4,66.9,29.97,SSW,202,0.0,-999.0,75,-99.99,,,0.00,Acu-Link.com,2013-10-02 22:14:00,
2013-10-02 18:30:00,73.8,64.6,29.96,SSW,202,0.0,-999.0,73,-99.99,,,0.00,Acu-Link.com,2013-10-02 22:30:00,
2013-10-02 18:45:00,73.2,65.5,29.96,South,180,0.0,-999.0,77,-99.99,,,0.00,Acu-Link.com,2013-10-02 22:45:00,
2013-10-02 19:00:00,72.7,66.2,29.97,South,180,0.0,-999.0,80,-99.99,,,0.00,Acu-Link.com,2013-10-02 23:00:00,
2013-10-02 19:15:00,72.0,65.5,29.97,South,180,0.0,-999.0,80,-99.99,,,0.00,Acu-Link.com,2013-10-02 23:15:00,
2013-10-02 19:30:00,70.7,66.0,29.97,South,180,0.0,-999.0,85,-99.99,,,0.00,Acu-Link.com,2013-10-02 23:30:00,
2013-10-02 19:45:00,70.3,65.9,29.97,South,180,0.0,-999.0,86,-99.99,,,0.00,Acu-Link.com,2013-10-02 23:45:00,
2013-10-02 20:00:00,69.4,66.0,29.98,South,180,0.0,-999.0,89,-99.99,,,0.00,Acu-Link.com,2013-10-03 00:00:00,
2013-10-02 20:15:00,69.1,66.0,29.98,West,270,0.0,-999.0,90,-99.99,,,0.00,Acu-Link.com,2013-10-03 00:15:00,
2013-10-02 20:30:00,68.4,65.7,29.98,SSE,157,0.0,-999.0,91,-99.99,,,0.00,Acu-Link.com,2013-10-03 00:30:00,
2013-10-02 20:46:00,67.8,65.4,29.98,SSE,157,0.0,-999.0,92,-99.99,,,0.00,Acu-Link.com,2013-10-03 00:46:00,
2013-10-02 21:01:00,67.3,65.5,29.98,SSW,202,0.0,-999.0,94,-99.99,,,0.00,Acu-Link.com,2013-10-03 01:01:00,
2013-10-02 21:16:00,66.9,65.4,29.98,ESE,112,0.0,-999.0,95,-99.99,,,0.00,Acu-Link.com,2013-10-03 01:16:00,
2013-10-02 21:31:00,66.6,65.4,29.99,WSW,247,0.0,-999.0,96,-99.99,,,0.00,Acu-Link.com,2013-10-03 01:31:00,
2013-10-02 21:46:00,66.2,65.0,29.99,SW,225,0.0,-999.0,96,-99.99,,,0.00,Acu-Link.com,2013-10-03 01:46:00,
2013-10-02 22:01:00,65.8,64.9,29.99,West,270,0.0,-999.0,97,-99.99,,,0.00,Acu-Link.com,2013-10-03 02:01:00,
2013-10-02 22:16:00,65.7,64.8,30.00,SW,225,0.0,-999.0,97,-99.99,,,0.00,Acu-Link.com,2013-10-03 02:16:00,
2013-10-02 22:31:00,65.3,64.7,30.00,SW,225,0.0,-999.0,98,-99.99,,,0.00,Acu-Link.com,2013-10-03 02:31:00,
2013-10-02 22:46:00,64.9,64.3,30.00,SW,225,0.0,-999.0,98,-99.99,,,0.00,Acu-Link.com,2013-10-03 02:46:00,
2013-10-02 23:02:00,64.6,64.0,30.01,SW,225,0.0,-999.0,98,-99.99,,,0.00,Acu-Link.com,2013-10-03 03:02:00,
2013-10-02 23:17:00,64.4,63.8,30.01,SSW,202,0.0,-999.0,98,-99.99,,,0.00,Acu-Link.com,2013-10-03 03:17:00,
2013-10-02 23:32:00,64.0,63.4,30.01,South,180,0.0,-999.0,98,-99.99,,,0.00,Acu-Link.com,2013-10-03 03:32:00,
2013-10-02 23:47:00,63.9,63.3,30.01,South,180,0.0,-999.0,98,-99.99,,,0.00,Acu-Link.com,2013-10-03 03:47:00,